| time (UTC) | temp F | wind direction | speed MPH | gust MPH | rain 1hr in | rain 24hr in | rain mn in | humidity % | barometer mb |
| 20260503224503 | 77 | 59 | 1.0 | 10.0 | 0.00 | 0.01 | 0.01 | 41 | 1017.7 |
| 20260503223023 | 77 | 24 | 1.0 | 6.0 | 0.00 | 0.01 | 0.01 | 43 | 1018.2 |
| 20260503221514 | 78 | 223 | 1.0 | 6.0 | 0.00 | 0.01 | 0.01 | 44 | 1018.3 |
| 20260503220019 | 79 | 225 | 2.0 | 5.0 | 0.00 | 0.02 | 0.01 | 43 | 1018.5 |
| 20260503214524 | 76 | 280 | 1.0 | 6.0 | 0.00 | 0.02 | 0.01 | 44 | 1018.7 |
| 20260503213024 | 78 | 128 | 1.0 | 6.0 | 0.00 | 0.02 | 0.01 | 42 | 1019.2 |
| 20260503211509 | 77 | 113 | 1.0 | 6.0 | 0.00 | 0.02 | 0.01 | 41 | 1019.3 |
| 20260503210016 | 79 | 189 | 1.0 | 7.0 | 0.00 | 0.02 | 0.01 | 40 | 1019.7 |
| 20260503204522 | 78 | 180 | 1.0 | 10.0 | 0.00 | 0.03 | 0.01 | 41 | 1019.9 |
| 20260503203038 | 78 | 142 | 1.0 | 8.0 | 0.00 | 0.03 | 0.01 | 43 | 1020.1 |
| 20260503201509 | 79 | 281 | 2.0 | 8.0 | 0.00 | 0.03 | 0.01 | 36 | 1020.5 |
| 20260503200016 | 79 | 146 | 2.0 | 7.0 | 0.00 | 0.04 | 0.01 | 40 | 1020.7 |
| 20260503194521 | 79 | 292 | 0.0 | 5.0 | 0.00 | 0.04 | 0.01 | 40 | 1020.8 |
| 20260503193025 | 80 | 117 | 1.0 | 8.0 | 0.00 | 0.05 | 0.01 | 39 | 1021.2 |
| 20260503191523 | 79 | 254 | 2.0 | 10.0 | 0.00 | 0.05 | 0.01 | 43 | 1021.3 |
| 20260503190013 | 79 | 360 | 0.0 | 4.0 | 0.00 | 0.05 | 0.01 | 40 | 1021.5 |
| 20260503184526 | 79 | 136 | 1.0 | 7.0 | 0.00 | 0.06 | 0.01 | 42 | 1021.7 |
| 20260503183028 | 79 | 201 | 1.0 | 7.0 | 0.00 | 0.06 | 0.01 | 47 | 1021.9 |
| 20260503181528 | 78 | 75 | 2.0 | 8.0 | 0.00 | 0.06 | 0.01 | 43 | 1022.2 |
| 20260503180030 | 77 | 118 | 0.0 | 8.0 | 0.00 | 0.07 | 0.01 | 47 | 1022.5 |
| 20260503174517 | 78 | 121 | 2.0 | 7.0 | 0.00 | 0.08 | 0.01 | 49 | 1022.7 |
| 20260503173042 | 78 | 257 | 1.0 | 4.0 | 0.00 | 0.08 | 0.01 | 41 | 1022.7 |
| 20260503171534 | 76 | 272 | 1.0 | 4.0 | 0.00 | 0.09 | 0.01 | 46 | 1022.9 |
| 20260503081513 | 50 | 24 | 0.0 | 0.0 | 0.00 | 0.18 | 0.00 | 92 | 1021.7 |
| 20260503071524 | 51 | 24 | 0.0 | 0.0 | 0.00 | 0.19 | 0.00 | 92 | 1022.1 |
| 20260503054511 | 53 | 24 | 0.0 | 0.0 | 0.00 | 0.20 | 0.00 | 91 | 1022.3 |
| 20260503053017 | 53 | 24 | 0.0 | 0.0 | 0.00 | 0.20 | 0.00 | 91 | 1022.4 |
| 20260503051526 | 53 | 24 | 0.0 | 0.0 | 0.00 | 0.20 | 0.00 | 91 | 1022.4 |
| 20260503050024 | 53 | 24 | 0.0 | 0.0 | 0.00 | 0.21 | 0.00 | 90 | 1022.3 |
| 20260503044530 | 53 | 24 | 0.0 | 0.0 | 0.00 | 0.21 | 0.21 | 90 | 1022.3 |
| 20260503043015 | 53 | 24 | 0.0 | 0.0 | 0.00 | 0.21 | 0.21 | 89 | 1022.3 |
| 20260503041520 | 54 | 24 | 0.0 | 0.0 | 0.00 | 0.21 | 0.21 | 89 | 1022.0 |
| 20260503040030 | 54 | 24 | 0.0 | 0.0 | 0.00 | 0.21 | 0.21 | 88 | 1022.0 |
| 20260503034526 | 55 | 24 | 0.0 | 0.0 | 0.00 | 0.22 | 0.21 | 87 | 1022.1 |
| 20260503033048 | 55 | 24 | 0.0 | 0.0 | 0.00 | 0.22 | 0.21 | 86 | 1021.9 |
| 20260503031517 | 56 | 24 | 0.0 | 0.0 | 0.00 | 0.22 | 0.21 | 85 | 1021.8 |
| 20260503030025 | 56 | 24 | 0.0 | 0.0 | 0.00 | 0.22 | 0.21 | 83 | 1021.9 |
| 20260503024524 | 57 | 24 | 0.0 | 0.0 | 0.00 | 0.22 | 0.21 | 83 | 1021.6 |
| 20260503023041 | 58 | 24 | 0.0 | 0.0 | 0.00 | 0.22 | 0.21 | 82 | 1021.3 |
| 20260503021529 | 59 | 24 | 0.0 | 0.0 | 0.00 | 0.23 | 0.21 | 77 | 1021.0 |
| 20260503020018 | 60 | 24 | 0.0 | 0.0 | 0.00 | 0.23 | 0.21 | 71 | 1021.0 |
| 20260503014530 | 61 | 24 | 0.0 | 0.0 | 0.00 | 0.23 | 0.21 | 68 | 1021.0 |
| 20260503013027 | 62 | 24 | 0.0 | 0.0 | 0.00 | 0.23 | 0.21 | 65 | 1021.0 |
| 20260503011528 | 63 | 24 | 0.0 | 0.0 | 0.00 | 0.23 | 0.21 | 64 | 1020.7 |
| 20260503010032 | 64 | 24 | 0.0 | 0.0 | 0.00 | 0.24 | 0.21 | 67 | 1020.7 |
| 20260503004547 | 65 | 76 | 0.0 | 0.0 | 0.00 | 0.24 | 0.21 | 65 | 1020.6 |
| 20260503003026 | 66 | 141 | 0.0 | 3.0 | 0.00 | 0.24 | 0.21 | 62 | 1020.6 |
| 20260503001528 | 67 | 90 | 0.0 | 2.0 | 0.00 | 0.24 | 0.21 | 67 | 1020.5 |
| 20260503000003 | 68 | 149 | 0.0 | 1.0 | 0.00 | 0.24 | 0.21 | 62 | 1020.4 |
| 20260502234502 | 70 | 155 | 0.0 | 2.0 | 0.00 | 0.24 | 0.21 | 56 | 1020.4 |
| 20260502233003 | 71 | 75 | 0.0 | 2.0 | 0.00 | 0.25 | 0.21 | 53 | 1020.3 |
| 20260502231503 | 72 | 350 | 0.0 | 2.0 | 0.00 | 0.25 | 0.21 | 51 | 1020.3 |
| 20260502230003 | 72 | 109 | 0.0 | 3.0 | 0.01 | 0.25 | 0.21 | 53 | 1020.3 |